Temperature
14 14 14 13 13 13 13 13 13 13 13 13 12 12 12 12 12 12 12 11 11 11 11 11 11 11 11 11 11 11 11 11 11 11 11 11 11 11 11 11 11 11 11
13 13 13 13 13 13 13 12 12 12 12 12 12 12 12 12 11 11 11 11 11 11 11 11 11 11 11 11 11 11 11 10 10 10 11 11 11 11 11 11 11 11 11
13 13 13 12 12 12 12 12 12 12 12 12 12 11 11 11 11 11 11 11 10 10 11 10 10 10 10 10 10 10 10 10 10 10 10 10 10 10 10 10 10 10 10
13 12 12 12 12 12 12 12 11 11 11 11 11 11 11 11 11 10 10 10 10 10 10 10 10 10 10 10 10 10 10 10 10 10 10 10 10 10 10 10 10 10 10
12 12 12 12 11 11 11 11 11 11 11 11 11 11 10 10 10 10 10 10 10 10 10 10 10 9 9 9 9 9 9 9 9 9 9 9 10 10 10 10 10 10 10
12 12 11 11 11 11 11 11 10 10 10 10 10 10 10 10 10 10 9 9 9 9 9 9 9 9 9 9 9 9 9 9 9 9 9 9 9 9 9 9 9 9 9
11 11 11 11 11 11 10 10 10 10 10 10 10 9 9 9 9 9 9 9 9 9 9 9 9 9 9 9 9 9 9 9 8 8 9 9 9 9 9 9 9 9 9
11 11 10 10 10 10 10 10 10 9 9 9 9 9 9 9 9 9 9 8 8 8 8 8 8 8 8 8 8 8 8 8 8 8 8 8 9 9 8 8 8 8 9
10 10 10 9 9 9 9 9 9 9 9 9 9 8 8 8 8 8 8 8 8 8 8 8 8 8 8 8 7 8 8 8 8 8 8 8 8 8 8 8 8 8 8
10 9 9 9 9 9 9 9 8 8 8 8 8 8 8 8 8 8 8 8 8 7 7 7 7 7 7 7 7 7 7 8 7 8 7 8 8 8 8 8 8 7 7
9 9 9 8 8 8 8 8 8 8 8 7 7 7 7 7 7 7 7 7 7 7 7 7 7 7 7 7 7 7 7 7 7 7 7 7 7 7 7 7 7 7 7
8 8 8 8 8 7 7 7 7 7 7 7 7 7 7 7 7 6 6 6 6 6 6 6 6 6 6 6 6 6 6 6 6 6 6 6 7 7 7 7 7 7 7
8 8 7 7 7 7 7 7 7 7 6 6 6 6 6 6 6 6 6 6 6 5 5 5 6 6 6 6 6 5 5 5 6 6 6 6 6 6 6 6 6 6 6
7 7 7 6 6 6 6 6 6 6 6 6 6 5 5 5 5 5 5 5 5 5 5 5 5 5 5 5 5 5 5 5 5 5 5 5 5 5 5 5 5 5 6
7 6 6 6 6 6 5 5 5 5 5 5 5 5 5 5 5 5 5 5 5 4 4 5 5 5 5 5 5 5 4 4 4 4 4 4 5 5 5 5 5 5 5
6 6 6 5 5 5 5 5 4 4 4 4 4 4 4 4 4 4 4 4 4 4 4 4 4 4 4 4 4 4 4 4 4 4 4 4 4 4 4 4 4 4 4
5 5 5 5 5 4 4 4 4 4 4 4 4 4 4 4 3 3 3 3 3 3 3 3 3 3 3 3 3 3 3 3 3 3 3 3 3 3 3 3 3 3 3
5 5 4 4 4 4 4 3 3 3 3 3 3 3 3 3 3 3 3 3 3 3 3 3 3 3 3 3 3 3 3 3 3 3 3 3 3 3 3 3 3 3 3
4 4 4 4 4 3 3 3 3 3 2 2 3 3 3 3 3 3 2 2 2 2 2 2 2 2 2 2 2 2 2 2 2 2 2 2 2 2 2 2 2 2 2
4 4 3 3 3 3 3 2 2 2 2 2 2 2 2 2 2 2 2 2 2 2 1 2 2 2 2 2 2 1 2 2 2 2 2 2 2 2 2 2 2 2 2
3 3 3 3 3 3 2 2 2 2 2 2 2 2 1 1 1 1 1 1 1 1 1 1 1 1 1 1 1 1 1 1 1 1 1 1 1 1 1 1 1 1 1
3 3 3 2 2 2 2 2 2 1 1 1 1 1 1 1 1 1 1 1 1 1 1 1 1 1 1 1 1 1 1 1 1 1 1 1 1 1 1 1 1 1 1
2 2 2 2 2 2 2 1 1 1 1 1 1 1 1 1 1 1 0 0 0 0 0 0 0 0 0 0 0 0 0 0 0 0 0 0 0 1 1 0 0 0 0
2 2 2 1 1 1 1 1 1 1 1 1 1 1 0 0 0 0 0 0 -0 -0 -0 -0 -0 -0 -0 -0 -0 -0 -0 -0 -0 0 0 0 0 0 0 0 0 0 0
2 1 1 1 1 1 1 0 0 1 1 0 0 0 0 -0 -0 -0 -0 -0 -0 -1 -1 -1 -1 -1 -1 -1 -1 -1 -0 -0 -0 -0 -0 -0 -0 -0 -0 -0 -0 -0 -0
1 1 1 1 1 0 0 0 0 0 0 0 -0 -0 -0 -0 -1 -1 -1 -1 -1 -1 -1 -1 -1 -1 -1 -1 -1 -1 -1 -0 -0 -1 -0 -0 -1 -1 -1 -0 -0 -0 -0
Wind_Speed
1 1 1 1 0 0 1 2 2 1 1 1 1 1 1 1 1 2 2 2 2 1 1 1 2 1 1 1 1 1 1 1 3 3 2 2 2 3 4 3 3 3 4
1 1 1 1 0 1 1 2 1 1 1 1 1 1 1 1 1 2 2 2 3 2 2 2 2 2 2 1 1 2 2 2 2 4 3 2 2 3 2 2 3 3 3
1 1 1 0 0 1 1 1 1 1 1 1 1 1 2 2 2 2 3 3 3 4 4 3 4 2 3 2 2 2 2 1 1 2 3 2 2 2 2 2 2 2 3
1 1 1 2 2 2 1 1 1 1 1 1 1 1 2 2 2 2 2 2 3 4 4 4 4 4 5 4 3 3 2 1 1 1 2 2 2 2 1 1 2 2 3
1 1 2 2 1 1 1 1 1 1 1 1 1 1 1 1 2 2 2 2 3 3 3 4 4 4 4 3 3 3 3 2 1 1 2 2 2 1 2 2 2 3 3
1 1 1 1 1 1 2 1 1 1 1 1 1 2 2 2 2 2 2 2 2 3 4 4 4 4 4 5 5 4 4 3 3 2 2 3 4 4 2 2 2 1 3
1 1 1 1 1 2 2 1 1 1 1 2 2 2 3 4 4 3 4 2 2 3 4 4 4 4 4 3 5 4 5 5 5 5 5 6 5 5 3 3 3 3 4
1 1 1 1 1 2 1 2 2 2 2 2 3 3 3 4 4 4 3 2 3 4 4 4 4 4 4 3 3 3 4 5 6 4 5 6 5 5 5 5 4 3 2
1 1 2 1 2 2 2 2 2 2 2 3 3 3 3 4 5 4 2 2 3 4 4 4 4 4 5 4 3 3 4 4 5 5 5 5 4 4 3 1 1 1 3
2 2 2 1 2 3 3 3 2 2 3 2 3 3 3 4 5 4 3 2 2 3 3 4 6 5 5 4 3 3 4 4 3 3 3 4 3 3 4 4 4 3 2
2 1 2 2 2 2 2 2 2 2 2 2 3 3 3 3 4 4 3 2 3 3 3 3 4 6 5 5 4 4 5 3 2 2 2 2 2 2 2 3 3 4 4
1 1 2 2 2 2 1 1 1 1 2 2 2 3 3 3 3 4 4 4 3 3 3 4 4 6 6 5 4 4 4 2 1 1 2 2 2 3 3 3 3 3 3
1 2 2 2 2 2 1 1 2 1 1 2 2 2 3 3 3 5 5 5 4 3 3 5 5 5 4 3 3 3 2 1 1 2 3 3 3 3 2 1 1 1 1
1 1 1 1 2 2 2 1 1 1 1 2 2 2 3 3 3 2 2 3 3 3 3 3 4 4 2 2 2 2 2 2 2 3 3 3 2 2 2 2 2 2 1
1 1 1 1 1 1 2 2 2 2 2 2 2 2 3 4 4 4 3 2 2 2 2 1 1 1 2 2 2 2 1 1 2 2 2 2 2 2 2 2 1 1 2
1 2 1 1 1 1 2 3 4 3 5 4 4 4 3 4 5 4 5 4 4 3 1 1 2 2 2 3 2 2 2 2 2 2 2 2 2 2 2 2 2 2 2
2 2 1 1 1 2 2 2 3 4 5 5 6 6 5 5 4 4 4 4 3 2 1 2 3 3 3 3 3 3 3 3 2 2 2 2 2 2 2 2 2 2 2
1 2 2 2 2 2 2 2 2 3 4 4 6 7 6 6 5 4 3 2 2 2 2 3 3 3 3 3 3 3 3 2 2 2 2 2 2 2 2 2 2 3 3
2 2 2 2 2 2 2 2 2 3 3 4 4 5 6 5 4 4 2 1 2 3 3 3 3 3 4 4 3 3 3 3 3 2 2 3 3 2 3 3 3 3 3
2 3 2 1 1 2 2 2 3 3 4 4 4 4 4 3 2 3 2 2 3 3 4 4 4 4 4 3 3 3 3 3 3 3 3 3 3 3 4 4 3 3 4
2 3 3 2 2 2 2 3 3 4 4 4 5 5 5 3 4 4 3 3 3 4 4 4 4 4 3 3 3 3 4 4 4 3 3 3 4 4 4 4 4 4 4
2 2 2 2 2 2 3 3 3 4 4 5 5 5 6 4 3 4 4 4 4 4 4 4 4 4 4 4 4 4 4 4 4 4 4 4 4 4 4 4 4 4 5
2 2 2 2 2 4 4 3 3 4 4 5 5 5 4 3 4 4 4 4 3 3 4 4 4 4 4 4 5 5 5 6 5 5 5 5 5 5 5 5 6 6 5
2 2 3 3 3 3 3 4 4 4 4 5 5 4 4 3 3 4 4 4 4 3 4 4 4 5 6 6 5 6 7 7 6 6 7 6 6 5 5 5 5 6 6
2 3 3 3 3 4 4 4 4 5 5 5 5 4 4 4 4 4 4 4 4 4 5 5 5 6 7 8 8 7 8 8 8 6 6 5 6 6 6 6 6 5 6
2 3 3 3 3 4 4 4 5 5 5 5 4 4 4 4 4 4 4 4 4 4 5 5 7 8 8 8 9 10 10 10 9 9 7 5 5 6 6 5 6 6 6
Wind_Direction
189 198 179 206 205 202 240 246 233 242 222 205 223 215 217 237 217 184 206 183 182 232 246 206 254 252 257 275 231 207 217 197 238 278 278 295 298 304 315 307 286 267 269
212 192 194 207 174 176 255 266 254 254 265 223 210 215 218 229 227 203 216 207 197 212 232 227 251 257 254 249 249 229 230 225 222 269 289 290 285 289 302 312 319 296 274
208 190 199 226 203 232 256 280 281 264 291 304 197 216 238 234 227 227 218 218 216 222 225 224 240 229 248 247 248 242 239 253 237 247 278 287 295 311 323 314 317 318 295
190 179 199 231 230 235 235 244 263 255 256 272 244 222 229 232 227 231 221 225 230 234 232 231 233 223 227 227 236 242 230 229 246 249 274 286 289 298 308 299 311 308 298
160 187 226 238 242 230 205 226 247 260 268 265 281 280 258 232 235 229 227 229 235 245 250 246 246 248 250 234 236 232 217 214 224 250 268 290 286 292 275 270 272 299 289
172 247 276 270 256 225 211 205 224 271 283 267 263 273 271 267 285 271 252 226 235 241 253 262 261 253 264 264 262 249 224 212 216 221 250 252 257 250 254 266 269 290 283
183 261 302 288 275 254 226 200 220 249 265 276 281 271 269 271 279 274 268 233 230 243 248 256 272 276 267 251 261 266 260 262 241 219 229 241 245 236 226 243 243 242 250
197 269 293 294 269 276 243 232 238 235 239 254 270 272 270 280 287 277 271 248 245 250 248 245 253 264 267 262 249 256 262 267 262 245 229 239 246 234 219 224 231 255 280
257 279 283 266 255 258 253 253 250 243 252 253 256 264 268 281 292 283 280 245 254 264 264 259 253 253 270 275 247 250 267 281 285 273 272 274 272 260 228 184 198 223 264
264 267 281 275 250 252 247 250 260 244 251 257 273 275 269 274 289 289 269 227 248 268 277 272 267 268 274 269 239 233 251 267 279 294 294 298 289 273 246 210 202 214 235
273 283 302 296 271 263 266 258 258 263 268 270 275 286 283 283 295 302 288 235 231 248 266 275 272 281 284 280 265 235 251 268 265 262 273 281 278 266 253 239 215 211 221
310 305 299 302 310 334 312 300 281 274 276 278 279 292 291 288 297 295 300 290 273 240 256 269 276 288 288 286 274 271 281 296 271 265 263 270 262 260 256 249 237 227 224
1 333 323 335 344 346 333 318 315 307 281 284 283 284 289 290 291 298 300 305 298 273 266 282 298 306 304 298 302 302 299 260 244 260 258 263 258 253 247 243 244 232 296
345 325 325 343 340 339 333 317 312 297 290 290 282 282 289 291 287 285 282 293 306 302 292 300 319 327 320 316 320 315 298 259 256 260 270 269 270 269 259 246 239 242 264
268 285 298 306 309 321 318 307 299 284 279 276 269 263 277 285 287 289 285 275 268 267 287 295 326 329 319 315 312 305 296 296 289 276 271 273 276 272 266 252 239 231 234
270 280 276 289 298 301 312 325 327 317 323 316 302 287 288 290 299 296 292 291 298 307 323 271 269 266 270 273 276 285 280 269 265 269 273 266 259 257 267 263 240 235 251
255 268 266 269 281 298 303 308 317 330 336 331 324 311 301 304 303 300 293 294 305 326 309 264 262 260 261 260 259 261 267 271 267 264 265 270 263 256 253 259 259 256 255
284 278 277 259 263 272 280 288 296 306 317 321 324 321 311 304 299 300 304 319 309 302 268 263 264 266 263 258 257 265 271 272 269 268 269 268 259 253 253 255 254 259 260
289 283 275 270 273 273 279 283 286 289 291 298 306 314 316 308 306 303 300 266 259 266 265 264 261 264 267 262 254 253 256 259 259 259 258 261 254 244 248 254 255 259 260
281 286 293 279 286 289 285 284 286 285 286 286 288 290 303 308 297 291 273 257 256 261 262 264 264 263 265 265 261 254 253 255 256 253 256 256 250 242 241 246 247 250 253
274 282 293 303 283 272 271 272 277 280 283 283 282 283 284 278 272 269 267 260 253 254 259 265 263 261 259 259 261 261 259 258 254 253 256 257 251 248 245 243 244 247 249
266 265 267 274 280 277 280 277 278 277 280 283 288 293 294 282 269 267 262 260 258 256 256 256 258 259 250 245 247 253 259 263 260 256 254 253 250 245 246 249 248 251 250
272 272 270 271 274 283 290 285 280 278 279 281 283 286 284 277 272 266 265 264 260 260 262 259 259 264 265 264 257 246 247 252 255 251 246 249 250 251 247 246 248 251 251
260 261 263 269 275 277 276 278 278 282 283 283 282 281 275 269 270 270 270 271 269 266 265 262 260 260 263 268 265 259 254 254 252 245 244 246 248 253 249 247 249 252 249
262 262 263 262 266 271 275 277 278 280 282 281 282 284 281 273 272 274 272 270 271 271 270 269 269 264 262 263 264 262 262 260 256 253 248 248 248 250 252 247 246 249 246
277 276 274 270 269 272 276 278 278 279 277 279 280 279 278 275 273 274 275 271 271 274 273 271 266 266 267 266 263 263 263 263 260 258 251 249 249 250 254 250 248 242 243
Height
1526 1525 1525 1525 1525 1524 1524 1524 1524 1523 1523 1523 1522 1522 1522 1522 1521 1521 1521 1520 1520 1520 1520 1519 1519 1519 1519 1519 1518 1518 1518 1518 1517 1516 1515 1515 1515 1515 1514 1514 1513 1513 1513
1523 1523 1523 1522 1522 1521 1521 1521 1520 1520 1520 1520 1519 1519 1519 1519 1518 1518 1518 1517 1517 1517 1517 1516 1516 1516 1516 1516 1515 1515 1515 1515 1514 1513 1512 1512 1512 1512 1512 1511 1511 1510 1510
1521 1520 1520 1520 1519 1519 1518 1518 1518 1517 1517 1516 1516 1516 1515 1515 1515 1515 1515 1514 1514 1513 1513 1513 1512 1512 1512 1512 1512 1512 1512 1511 1511 1510 1509 1509 1509 1509 1508 1508 1508 1508 1508
1518 1518 1517 1517 1516 1516 1516 1515 1515 1514 1514 1513 1513 1512 1512 1512 1511 1511 1511 1511 1510 1510 1509 1509 1509 1509 1509 1509 1509 1508 1508 1508 1508 1507 1506 1506 1505 1505 1505 1505 1504 1505 1505
1516 1515 1515 1514 1514 1513 1513 1512 1512 1511 1510 1510 1510 1509 1509 1508 1508 1507 1507 1507 1506 1506 1505 1505 1505 1505 1505 1505 1505 1505 1505 1504 1504 1504 1503 1502 1502 1501 1501 1501 1501 1501 1501
1514 1513 1512 1512 1511 1510 1509 1509 1508 1508 1507 1507 1507 1506 1505 1505 1505 1504 1504 1503 1503 1502 1501 1501 1501 1501 1501 1501 1501 1501 1501 1501 1500 1500 1499 1499 1498 1498 1498 1498 1497 1497 1496
1511 1510 1510 1509 1507 1507 1506 1505 1505 1504 1504 1503 1503 1502 1502 1501 1501 1501 1500 1500 1499 1498 1497 1497 1496 1496 1497 1497 1497 1497 1497 1497 1497 1497 1495 1495 1495 1495 1495 1494 1494 1493 1493
1508 1507 1506 1505 1504 1504 1503 1502 1502 1501 1500 1499 1498 1498 1498 1497 1497 1497 1496 1496 1495 1494 1494 1493 1492 1492 1492 1492 1492 1492 1492 1492 1492 1492 1492 1492 1492 1491 1491 1491 1490 1490 1490
1505 1504 1503 1502 1501 1500 1499 1498 1498 1497 1497 1496 1495 1494 1494 1493 1493 1492 1492 1491 1491 1490 1490 1489 1489 1488 1488 1488 1487 1487 1487 1487 1488 1487 1487 1487 1487 1487 1487 1487 1486 1486 1484
1502 1501 1500 1499 1498 1497 1496 1495 1494 1494 1493 1492 1491 1491 1490 1489 1489 1488 1488 1487 1486 1486 1485 1485 1485 1484 1484 1483 1483 1482 1482 1482 1482 1482 1482 1482 1482 1482 1482 1482 1482 1481 1480
1499 1498 1497 1496 1495 1493 1492 1491 1490 1490 1489 1488 1487 1486 1486 1485 1485 1485 1484 1483 1482 1481 1481 1481 1480 1480 1479 1479 1479 1478 1478 1478 1477 1477 1477 1477 1477 1477 1477 1477 1477 1477 1476
1497 1495 1494 1493 1491 1490 1489 1487 1486 1485 1484 1483 1483 1482 1482 1481 1481 1480 1480 1479 1479 1478 1477 1477 1476 1476 1475 1475 1474 1474 1474 1474 1473 1472 1471 1471 1472 1472 1472 1472 1472 1472 1472
1494 1492 1491 1490 1489 1487 1485 1484 1483 1482 1481 1479 1479 1478 1477 1476 1476 1476 1476 1475 1475 1474 1473 1473 1472 1472 1471 1470 1470 1470 1469 1469 1468 1467 1467 1467 1467 1467 1467 1467 1467 1467 1467
1491 1490 1488 1487 1486 1484 1483 1481 1480 1478 1477 1476 1475 1474 1473 1472 1472 1472 1471 1471 1470 1470 1469 1469 1468 1468 1467 1466 1465 1465 1465 1464 1464 1464 1463 1463 1463 1463 1462 1462 1462 1462 1462
1488 1487 1486 1484 1483 1481 1480 1479 1477 1476 1475 1474 1472 1471 1470 1469 1469 1468 1467 1466 1466 1465 1465 1464 1464 1463 1462 1462 1461 1461 1461 1460 1460 1460 1459 1458 1458 1458 1458 1458 1457 1457 1457
1485 1484 1482 1481 1480 1479 1477 1476 1475 1474 1472 1471 1470 1469 1467 1467 1465 1465 1464 1463 1462 1462 1461 1460 1459 1459 1458 1458 1457 1457 1456 1456 1456 1456 1455 1454 1454 1453 1453 1453 1453 1453 1452
1483 1481 1479 1478 1477 1476 1475 1473 1472 1471 1469 1468 1467 1466 1464 1463 1462 1461 1460 1459 1458 1458 1456 1455 1455 1455 1454 1454 1453 1453 1452 1452 1452 1451 1451 1450 1450 1449 1449 1449 1449 1449 1448
1479 1478 1476 1475 1474 1473 1472 1471 1469 1467 1465 1464 1463 1462 1460 1459 1457 1457 1456 1455 1454 1453 1452 1452 1451 1450 1450 1450 1449 1449 1448 1448 1447 1447 1447 1446 1446 1445 1445 1445 1445 1445 1445
1476 1475 1474 1472 1471 1470 1469 1468 1466 1464 1462 1460 1458 1457 1456 1454 1453 1453 1451 1451 1449 1449 1448 1448 1447 1446 1446 1445 1445 1444 1444 1443 1443 1443 1442 1442 1442 1441 1441 1441 1441 1441 1441
1473 1472 1471 1469 1468 1467 1466 1464 1463 1461 1459 1457 1455 1453 1452 1450 1449 1448 1447 1446 1445 1444 1444 1443 1442 1442 1441 1440 1440 1440 1439 1439 1438 1438 1438 1438 1437 1437 1437 1437 1437 1436 1436
1469 1468 1467 1466 1465 1464 1463 1461 1459 1457 1455 1453 1452 1450 1449 1447 1445 1444 1443 1442 1441 1440 1439 1439 1438 1437 1436 1436 1435 1435 1434 1434 1434 1433 1433 1433 1433 1433 1433 1432 1432 1432 1431
1466 1465 1464 1463 1462 1460 1459 1457 1456 1454 1452 1450 1447 1446 1444 1443 1441 1440 1438 1437 1437 1436 1435 1434 1433 1433 1432 1431 1430 1430 1429 1429 1428 1428 1428 1428 1428 1428 1428 1428 1427 1427 1427
1463 1461 1460 1459 1458 1457 1455 1454 1452 1450 1448 1446 1444 1442 1440 1438 1437 1435 1434 1433 1432 1431 1430 1429 1428 1427 1427 1426 1425 1425 1424 1423 1423 1423 1423 1423 1423 1423 1422 1422 1422 1422 1421
1459 1458 1457 1455 1454 1453 1451 1449 1448 1446 1444 1442 1440 1438 1436 1434 1433 1431 1430 1429 1427 1426 1425 1424 1423 1422 1422 1421 1420 1419 1419 1419 1418 1418 1418 1418 1417 1417 1417 1417 1416 1416 1416
1456 1454 1453 1451 1450 1449 1447 1445 1443 1442 1440 1438 1436 1434 1432 1430 1429 1427 1425 1424 1422 1421 1420 1419 1418 1417 1416 1415 1415 1414 1414 1413 1413 1413 1413 1412 1412 1412 1411 1411 1411 1411 1411
1452 1450 1449 1447 1446 1444 1443 1441 1439 1437 1436 1434 1432 1430 1428 1426 1424 1422 1421 1419 1418 1417 1415 1414 1413 1412 1411 1410 1409 1408 1408 1407 1407 1407 1407 1406 1406 1406 1405 1405 1405 1405 1405